Home   Weather   Shenyang   Past weeks

Flag for China Past Weather in Shenyang, Liaoning, China — Yesterday and Last 2 Weeks

Now
10 °F

Clear.


Feels Like: 1 °F
Forecast: 1 / 34 °F
Wind: 6 mph from Southeast

Location: Shenyang / Taoxian

Current Time: Jan 24, 2017 at 9:16:24 pm

Latest Report: Jan 24, 2017 at 8:30 pm


Visibility: 5 mi

Pressure: 30.60 "Hg

Humidity: 56%

Dew Point: -2 °F

Location of ShenyangLocation

Past Weather in Shenyang — Graph

°F

Shenyang Temperature Yesterday

Maximum temperature yesterday: 18 °F (at 2:30 pm)
Minimum temperature yesterday: -8 °F (at 5:00 am)
Average temperature yesterday: 4 °F

High & Low Weather Summary for the Past Weeks

 TemperatureHumidityPressure
High25 °F (Jan 16, 2:30 pm)92% (Jan 18, 5:00 am)30.66 "Hg (Jan 18, 5:00 am)
Low-8 °F (Jan 23, 5:00 am)31% (Jan 10, 10:30 am)30.07 "Hg (Jan 12, 7:00 pm)
Average9 °F62%30.40 "Hg
* Reported Jan 9 8:00 pm — Jan 24 8:00 pm, Shenyang, Weather by CustomWeather, © 2017

Note: Actual official high and low records may vary slightly from our data, if they occured in-between our weather recording intervals... More about our weather records

Advertising

Shenyang Weather History for the Previous 24 Hours

Scroll right to see more
 ConditionsComfort  
Time TempWeatherWind HumidityBarometerVisibility
8:00 pm
Tue, Jan 24
9 °FClear.3 mph61%30.60 "Hg5 mi
7:30 pm10 °FClear.3 mph56%30.60 "Hg5 mi
7:00 pm12 °FClear.3 mph57%30.60 "Hg5 mi
6:30 pm12 °FClear.3 mph57%30.60 "Hg5 mi
6:00 pm12 °FClear.1 mph52%30.60 "Hg5 mi
5:30 pm16 °FClear.3 mph48%30.60 "Hg5 mi
5:00 pm18 °FClear.1 mph41%30.60 "Hg4 mi
4:30 pm19 °FSunny.1 mph38%30.60 "Hg10 mi
4:00 pm21 °FSunny.3 mph38%30.60 "Hg10 mi
3:30 pm21 °FPassing clouds.3 mph35%30.57 "HgN/A
3:00 pm21 °FPassing clouds.3 mph35%30.60 "HgN/A
2:30 pm21 °FClear.3 mph35%30.60 "Hg5 mi
2:00 pm23 °FClear.3 mph36%30.60 "Hg4 mi
1:30 pm21 °FClear.1 mph42%30.60 "Hg2 mi
1:00 pm19 °FClear.3 mph49%30.60 "Hg2 mi
12:30 pm19 °FClear.6 mph49%30.63 "Hg2 mi
12:00 pm18 °FClear.3 mph53%30.63 "Hg2 mi
11:30 am16 °FClear.3 mph57%30.63 "Hg2 mi
11:00 am14 °FClear.3 mph62%30.66 "Hg2 mi
10:30 am12 °FClear.3 mph62%30.66 "Hg2 mi
10:00 am12 °FClear.1 mph57%30.66 "Hg2 mi
9:30 am9 °FClear.1 mph61%30.66 "Hg2 mi
9:00 am7 °FClear.1 mph66%30.66 "Hg2 mi
8:30 am3 °FClear.1 mph72%30.66 "Hg2 mi
8:00 am-2 °FClear.3 mph77%30.63 "Hg2 mi
7:30 am-4 °FClear.3 mph77%30.63 "Hg2 mi
7:00 am-6 °FClear.3 mph77%30.63 "Hg2 mi
6:30 am-4 °FClear.6 mph77%30.63 "Hg4 mi
6:00 am-4 °FClear.3 mph77%30.63 "Hg4 mi
5:30 am-4 °FClear.1 mph77%30.63 "Hg4 mi
5:00 am-2 °FClear.1 mph71%30.63 "Hg4 mi
4:30 am1 °FClear.6 mph71%30.63 "Hg10 mi
4:00 am0 °FClear.3 mph78%30.60 "Hg10 mi
3:30 am-2 °FClear.1 mph77%30.60 "Hg10 mi
3:00 am1 °FClear.3 mph71%30.60 "Hg10 mi
2:30 am1 °FClear.3 mph71%30.60 "Hg5 mi
2:00 am1 °FClear.3 mph71%30.60 "Hg5 mi
1:30 am1 °FClear.3 mph71%30.60 "Hg5 mi
1:00 am1 °FClear.3 mph71%30.60 "Hg5 mi
12:30 am1 °FClear.3 mph71%30.60 "Hg5 mi
12:00 am1 °FClear.1 mph71%30.60 "Hg4 mi
11:30 pm
Mon, Jan 23
1 °FClear.1 mph65%30.60 "Hg4 mi
11:00 pm1 °FClear.1 mph71%30.60 "Hg4 mi
10:30 pm1 °FClear.1 mph71%30.60 "Hg4 mi
10:00 pm1 °FClear.3 mph71%30.57 "Hg4 mi
9:30 pm1 °FClear.1 mph71%30.57 "Hg4 mi
9:00 pm5 °FClear.3 mph66%30.57 "Hg4 mi
Weather by CustomWeather, © 2017

See weather overviewHow to use our weather pages